When you browse on this site, cookies collect data to enhance your experience and personalize the content and advertising you see.
Visit our Privacy Policy to learn more. By continuing to use the site, you agree to this use of cookies and data.
  • In Romania
  • List of Countries
  • For 7 days
  • Water Temperature
  • Satellite Maps
  • Weather Map
  • Weather Widgets
  • user-avatar
    Login

    Hourly Weather Prikumskoe

    Today, 19 May, Sunday

    Time Temperature Precipitation Wind Pressure Humidity
    00:00 +17°C° 0 mm 3 mps 725 mmHg 91%
    01:00 +17°C° 0 mm 3 mps 725 mmHg 91%
    02:00 +16°C° 0 mm 3 mps 725 mmHg 91%
    03:00 +16°C° 0 mm 3 mps 725 mmHg 88%
    04:00 +15°C° 0 mm 4 mps 725 mmHg 88%
    05:00 +15°C° 0 mm 4 mps 725 mmHg 87%
    06:00 +17°C° 0 mm 4 mps 725 mmHg 87%
    07:00 +18°C° 0 mm 4 mps 725 mmHg 85%
    08:00 +19°C° 0 mm 4 mps 725 mmHg 82%
    09:00 +20°C° 0 mm 4 mps 726 mmHg 80%
    10:00 +21°C° 0 mm 4 mps 726 mmHg 77%
    11:00 +22°C° 0 mm 4 mps 726 mmHg 74%
    12:00 +23°C° 0 mm 4 mps 726 mmHg 71%
    13:00 +23°C° 0 mm 4 mps 726 mmHg 70%
    14:00 +25°C° 0 mm 3 mps 727 mmHg 69%
    15:00 +25°C° 0 mm 3 mps 727 mmHg 69%
    16:00 +24°C° 0 mm 2 mps 727 mmHg 71%
    17:00 +24°C° 0 mm 2 mps 727 mmHg 73%
    18:00 +23°C° 0 mm 2 mps 727 mmHg 76%
    19:00 +21°C° 0.3 mm 2 mps 728 mmHg 79%
    20:00 +20°C° 0.3 mm 2 mps 728 mmHg 82%
    21:00 +18°C° 0.3 mm 2 mps 728 mmHg 85%
    22:00 +19°C° 0.1 mm 1 mps 728 mmHg 87%
    23:00 +18°C° 0.1 mm 1 mps 728 mmHg 88%

    Tomorrow, 20 May, Monday

    Time Temperature Precipitation Wind Pressure Humidity
    00:00 +18°C° 0.1 mm 1 mps 728 mmHg 89%
    01:00 +16°C° 0 mm 1 mps 728 mmHg 89%
    02:00 +16°C° 0 mm 1 mps 729 mmHg 90%
    03:00 +16°C° 0 mm 1 mps 729 mmHg 90%
    04:00 +16°C° 0 mm 1 mps 729 mmHg 89%
    05:00 +18°C° 0 mm 1 mps 729 mmHg 87%
    06:00 +18°C° 0 mm 1 mps 729 mmHg 86%
    07:00 +19°C° 0 mm 2 mps 730 mmHg 79%
    08:00 +20°C° 0 mm 3 mps 730 mmHg 72%
    09:00 +22°C° 0 mm 4 mps 730 mmHg 65%
    10:00 +22°C° 0 mm 4 mps 731 mmHg 61%
    11:00 +23°C° 0 mm 5 mps 731 mmHg 56%
    12:00 +25°C° 0 mm 5 mps 731 mmHg 52%
    13:00 +25°C° 0 mm 5 mps 731 mmHg 52%
    14:00 +25°C° 0 mm 5 mps 731 mmHg 51%
    15:00 +26°C° 0 mm 5 mps 731 mmHg 51%
    16:00 +25°C° 0 mm 4 mps 731 mmHg 56%
    17:00 +23°C° 0 mm 4 mps 731 mmHg 60%
    18:00 +22°C° 0 mm 3 mps 731 mmHg 65%
    19:00 +21°C° 0 mm 2 mps 731 mmHg 67%
    20:00 +19°C° 0 mm 2 mps 732 mmHg 70%
    21:00 +19°C° 0 mm 1 mps 732 mmHg 72%
    22:00 +17°C° 0 mm 2 mps 732 mmHg 73%
    23:00 +16°C° 0 mm 2 mps 732 mmHg 73%

    Day after tomorrow, 21 May, Tuesday

    Time Temperature Precipitation Wind Pressure Humidity
    00:00 +16°C° 0 mm 2 mps 732 mmHg 73%
    01:00 +15°C° 0 mm 2 mps 732 mmHg 71%
    02:00 +14°C° 0 mm 2 mps 732 mmHg 70%
    03:00 +13°C° 0 mm 2 mps 732 mmHg 68%
    04:00 +13°C° 0 mm 1 mps 732 mmHg 69%
    05:00 +14°C° 0 mm 1 mps 733 mmHg 70%
    06:00 +14°C° 0 mm 1 mps 733 mmHg 71%
    07:00 +16°C° 0 mm 2 mps 733 mmHg 69%
    08:00 +18°C° 0 mm 4 mps 733 mmHg 68%
    09:00 +19°C° 0 mm 5 mps 733 mmHg 66%
    10:00 +21°C° 0 mm 5 mps 733 mmHg 65%
    11:00 +22°C° 0 mm 6 mps 733 mmHg 63%
    12:00 +23°C° 0 mm 7 mps 733 mmHg 61%
    13:00 +23°C° 0 mm 7 mps 733 mmHg 60%
    14:00 +23°C° 0 mm 7 mps 733 mmHg 59%
    15:00 +23°C° 0 mm 7 mps 733 mmHg 58%
    16:00 +23°C° 0 mm 6 mps 733 mmHg 60%
    17:00 +22°C° 0 mm 6 mps 732 mmHg 63%
    18:00 +21°C° 0 mm 5 mps 732 mmHg 66%
    19:00 +20°C° 0 mm 5 mps 732 mmHg 67%
    20:00 +17°C° 0 mm 6 mps 733 mmHg 68%
    21:00 +16°C° 0 mm 6 mps 733 mmHg 69%
    22:00 +15°C° 0 mm 5 mps 732 mmHg 73%
    23:00 +14°C° 0 mm 5 mps 732 mmHg 77%

    22 May, Wednesday

    Time Temperature Precipitation Wind Pressure Humidity
    00:00 +13°C° 0 mm 5 mps 732 mmHg 81%
    01:00 +13°C° 0 mm 4 mps 732 mmHg 80%
    02:00 +12°C° 0 mm 4 mps 731 mmHg 80%
    03:00 +12°C° 0 mm 4 mps 731 mmHg 79%
    04:00 +12°C° 0 mm 4 mps 731 mmHg 79%
    05:00 +12°C° 0 mm 4 mps 731 mmHg 78%
    06:00 +12°C° 0 mm 4 mps 731 mmHg 78%
    07:00 +14°C° 0 mm 4 mps 731 mmHg 74%
    08:00 +17°C° 0 mm 4 mps 731 mmHg 70%
    09:00 +18°C° 0 mm 4 mps 731 mmHg 67%
    10:00 +19°C° 0 mm 3 mps 731 mmHg 65%
    11:00 +20°C° 0 mm 3 mps 731 mmHg 64%
    12:00 +22°C° 0 mm 3 mps 731 mmHg 63%
    13:00 +21°C° 0.6 mm 2 mps 731 mmHg 67%
    14:00 +21°C° 0.6 mm 1 mps 731 mmHg 72%
    15:00 +21°C° 0.6 mm 1 mps 731 mmHg 76%
    16:00 +20°C° 0.6 mm 1 mps 731 mmHg 80%
    17:00 +20°C° 0.6 mm 1 mps 731 mmHg 84%
    18:00 +19°C° 0.6 mm 1 mps 731 mmHg 88%
    19:00 +18°C° 0 mm 1 mps 731 mmHg 89%
    20:00 +16°C° 0 mm 1 mps 731 mmHg 90%
    21:00 +16°C° 0 mm 1 mps 731 mmHg 91%
    22:00 +15°C° 0 mm 1 mps 731 mmHg 90%
    23:00 +15°C° 0 mm 1 mps 731 mmHg 89%

    23 May, Thursday

    Time Temperature Precipitation Wind Pressure Humidity
    00:00 +15°C° 0 mm 1 mps 730 mmHg 88%
    01:00 +14°C° 0 mm 1 mps 730 mmHg 87%
    02:00 +14°C° 0 mm 1 mps 730 mmHg 87%
    03:00 +14°C° 0 mm 1 mps 730 mmHg 86%
    04:00 +15°C° 0 mm 1 mps 730 mmHg 84%
    05:00 +16°C° 0 mm 1 mps 730 mmHg 82%
    06:00 +16°C° 0 mm 1 mps 730 mmHg 80%
    07:00 +20°C° 0 mm 1 mps 730 mmHg 73%
    08:00 +22°C° 0 mm 1 mps 730 mmHg 67%
    09:00 +24°C° 0 mm 2 mps 730 mmHg 60%
    10:00 +25°C° 0 mm 2 mps 730 mmHg 56%
    11:00 +26°C° 0 mm 2 mps 730 mmHg 52%
    12:00 +27°C° 0 mm 2 mps 729 mmHg 48%
    13:00 +26°C° 0.3 mm 2 mps 729 mmHg 50%
    14:00 +26°C° 0.3 mm 2 mps 729 mmHg 51%
    15:00 +26°C° 0.3 mm 2 mps 729 mmHg 53%
    16:00 +25°C° 0.5 mm 1 mps 729 mmHg 58%
    17:00 +24°C° 0.5 mm 1 mps 729 mmHg 64%
    18:00 +24°C° 0.5 mm 1 mps 729 mmHg 69%
    19:00 +22°C° 0.4 mm 1 mps 729 mmHg 73%
    20:00 +20°C° 0.4 mm 1 mps 729 mmHg 76%
    21:00 +17°C° 0.4 mm 0 mps 729 mmHg 80%
    22:00 +18°C° 0 mm 1 mps 729 mmHg 81%
    23:00 +18°C° 0 mm 1 mps 729 mmHg 82%

    24 May, Friday

    Time Temperature Precipitation Wind Pressure Humidity
    00:00 +16°C° 0 mm 1 mps 729 mmHg 83%
    01:00 +16°C° 0 mm 1 mps 728 mmHg 83%
    02:00 +16°C° 0 mm 1 mps 728 mmHg 82%
    03:00 +15°C° 0 mm 1 mps 728 mmHg 82%
    04:00 +16°C° 0 mm 1 mps 728 mmHg 80%
    05:00 +16°C° 0 mm 1 mps 729 mmHg 78%
    06:00 +18°C° 0 mm 1 mps 729 mmHg 76%
    07:00 +19°C° 0 mm 1 mps 729 mmHg 72%
    08:00 +19°C° 0 mm 0 mps 729 mmHg 68%
    09:00 +20°C° 0 mm 0 mps 729 mmHg 63%
    10:00 +23°C° 0 mm 1 mps 729 mmHg 60%
    11:00 +24°C° 0 mm 1 mps 729 mmHg 56%
    12:00 +26°C° 0 mm 2 mps 729 mmHg 52%
    13:00 +26°C° 0 mm 2 mps 728 mmHg 52%
    14:00 +26°C° 0 mm 2 mps 728 mmHg 51%
    15:00 +27°C° 0 mm 2 mps 728 mmHg 51%
    16:00 +26°C° 0 mm 2 mps 728 mmHg 56%
    17:00 +26°C° 0 mm 2 mps 728 mmHg 60%
    18:00 +25°C° 0 mm 1 mps 728 mmHg 65%
    19:00 +24°C° 0 mm 1 mps 728 mmHg 70%
    20:00 +22°C° 0 mm 1 mps 728 mmHg 76%
    21:00 +20°C° 0 mm 1 mps 728 mmHg 82%
    22:00 +20°C° 0 mm 1 mps 728 mmHg 82%
    23:00 +19°C° 0 mm 1 mps 728 mmHg 83%
    Show more